星链-3191 (STARLINK-3191 )

导读

STARLINK-3191是美国SpaceX公司星链星座的成员,于北京时间2021年12月2日发射入轨,属于星链低轨卫星互联网星座的组网卫星。它运行在近地轨道,搭载卫星通信载荷,依托星座整体架构,为全球偏远地区提供高速低延迟宽带互联网接入服务,是星链大规模组网进程中发射的工作卫星之一,助力星链实现全球覆盖。

基本信息
目录编号:
49770
目录名称:
STARLINK-3191
国际标识:
2021-115AY
轨道中心:
EARTH
卫星名称:
星链-3191
卫星全名:
星链-3191 (STARLINK-3191 )
卫星状态:
在轨 (已飞行1748 天)
发射日期:
2021-12-02 UTC
国别 :
美国 (US)
星等 :
--
该卫星已列入 空间交会检测服务 Space Conjunction Data Service (SCDS) ,当前飞行风险评估等级: 无高风险
轨道信息
数据来源 国际轨道数据 AOE轨道数据
星历时间 2026-09-15T02:33:05+0800
14小时前
查看轨道信息
2026-09-10T13:00:00+0800
5天前
查看轨道信息
半长轴 6848.025km 6848.836km
偏心率 0.0002062 0.0001442
轨道倾角 53.162° 53.158°
近地点辐角 41.011° 50.622°
升交点赤经 0.482° 21.738°
平近点角 319.104° 324.978°
近地点 468.475km 469.711km
远地点 471.301km 471.687km
周期 93.996分钟 94.012分钟
每日圈数 15.319861 15.317138
详细信息
固有亮度:
5
最大亮度:
2.5
卫星平台:
Starlink v1.5
覆盖范围:
全球
运营商:
太空探索技术公司
运营商所在国:
美国
制造商(研发单位):
太空探索技术公司
制造商所在国:
美国
使用方式:
暂无
卫星简介
星链(Starlink)计划是由太空探索技术公司(SpaceX)提出的一个巨型低轨卫星互联网星座项目,计划在2019年至2024年间在太空搭建由约1.2万颗卫星组成的“星链”网络,其中1584颗将部署在地球上空550千米处的近地轨道,并从2020年开始工作。该卫星仍在工作。
2D轨道图
3D轨道图
轨道高度分析图
轨道倾角分析图
轨道综合分析图
查看轨道综合分析图
交会数据列表
事件ID 空间交会对象 最接近时刻(TCA) 交会距离 交会风险概率(CRP) 交会风险指数(CRI) 操作
CDM_260915-082004-977006-866521
2026-09-15T
08:20:27+0000
2.992 km
极远距离
1.279914E-6 低风险 0.37
CDM_260916-012504-977005-305021
2026-09-16T
01:25:28+0000
2.885 km
极远距离
1.153516E-6 低风险 0.36
CDM_260916-000104-977006-971121
2026-09-16T
00:01:11+0000
2.802 km
极远距离
1.088009E-6 低风险 0.36
CDM_260915-095504-977006-636521
2026-09-15T
09:55:13+0000
2.633 km
极远距离
1.060249E-6 低风险 0.36
CDM_260917-041504-977006-965021
2026-09-17T
04:15:10+0000
2.965 km
极远距离
9.453937E-7 极低风险 0.35
CDM_260915-082104-977006-636521
2026-09-15T
08:21:16+0000
2.924 km
极远距离
9.204846E-7 极低风险 0.34
与全量物体交会距离演化趋势 订阅飞行安全评估服务
与全量物体交会风险概率演化趋势 订阅飞行安全评估服务